Погода в Бобруйске

Погода в Бобруйске : погода сейчас, прогноз погоды и архив. Всё, что Вы хотите узнать о погоде в Бобруйске!

Хотите узнать прогноз погоды в Бобруйске? Тогда Вам сюда: Погода в Бобруйске

Поиск расширенной информации на нашем сайте:

Полезная информация:

Другие новости

Новости СМИ2

Главная страница сайта

Новости сайта

03.07.2017

Напоминаем, что на нашем специализированном сайте Метеоцентр.Азия вы можете получить высокодетализированные автоматические прогнозы погоды по пунктам России, СНГ и мира в авиационном формате (включающие направление и скорость ветра, видимость, явления погоды, количество и форму облачности, нижнюю и верхнюю границу облачности).

Рекомендуем:

Погода в Бобруйске - сегодня

Время (UTC), дата Ветер
(°,м/с) 
Видим.   Явления Облачность Т
(°С)
Тd
(°С)
f(%) Тe
(°С)
Pmin
(гПа)
dP
(гПа)
Po
(мм)
O2
(г/м3)
Тmin Tmax R s Состояние
почвы
03 22.03.19 260 (З) 10 км    9/0 средняя 
[Ac und]
+7.3 +5.1 86 +6  1018.2  -2.1  749  293      0.3     
06 22.03.19 290 (З) 7-11{14}  10 км    9/5 300 м средняя 
[Sc|Ac trans]
+8.8 +5.7 81 +7  1018.9  0.9  750  292  +5.6    0.3     
09 22.03.19 300 (СЗ) 8-15{15}  20000 м  {ливн. осадки}  5/5 300 м кучево-дожд. 
[Cb calv]
+8.8 +2.8 66 +6  1019.2  0.3  750  292           
12 22.03.19 320 (СЗ) 8-14{22}  20000 м  {ливн. осадки}  ясно 
+9.8 -6.1 32 +8  1020.8  1.6  751  293           
15 22.03.19 320 (СЗ) 10-16{18}  20000 м    ясно 
+8.1 -8.5 30 +5  1022.4  1.3  752  295      0.3     
18 22.03.19 310 (СЗ) 5{16}  20000 м    ясно 
+4.7 -8.4 38 +3  1023.8  1.2  753  299    +10.2  0.3     
21 22.03.19 320 (СЗ) 6{13}  15000 м    ясно 
+3.1 -7.7 45 1024.6  0.7  754  301           
00 23.03.19 320 (СЗ) 5{13}  15000 м    ясно 
+1.1 -6.7 56 -2  1025.3  0.6  754  303           
03 23.03.19 320 (СЗ) 15000 м    ясно 
-0.5 -6.7 63 -3  1026  0.6  755  305           
06 23.03.19 340 (С) 20000 м    ясно 
+1 -6.1 59 -2  1026.9  755  304  -1.4         
09 23.03.19 030 (СВ) 5{11}  20000 м    3/0 верхняя 
[Ci fib]
+5 -4.3 51 +3  1026.6  755  299           
12 23.03.19 030 (СВ) 4{11}  20000 м    4/0 верхняя 
[Ci fib]
+7.9 -2.4 48 +7  1025.3  -1.2  755  296           
15 23.03.19 300 (СЗ) 20000 м    4/0 верхняя 
[Ci fib]
+9.2 -4.1 39 +9  1023.7  -1.4  753  294           
18 23.03.19 тихо ()   20000 м    5/0 верхняя 
[Ci fib]
+1.1 -2.7 76 +1  1023.3  -1  753  302    +9.4       
21 23.03.19 320 (СЗ) 12000 м    4/0 верхняя 
[Ci fib]
-1.3 -2.6 91 -1  1022.4  -1.1  752  305           
00 24.03.19 250 (З) 10 км    9/0 средняя 
[Ac und]
+2.9 -4.3 59 +4  1018.8  -3.2  749  299           
03 24.03.19 250 (З) 10 км    9/8 720 м кучево-дожд., средняя 
[Cb calv|Ac und]
+4 -4 56 +3  1016.2  -2.4  748  297           
06 24.03.19 310 (СЗ) 15000 м  {ливн. осадки}  3/0 верхняя 
[Ci fib]
+5.9 -0.8 62 +4  1015.7  -0.4  747  295  -2.2    0.0     
09 24.03.19 310 (СЗ) 7-12{13}  20000 м    3/3 300 м 
[Sc]
+9.4 -0.2 51 +7  1015.5  0.1  747  291           
12 24.03.19 330 (СЗ) 7-11{15}  20000 м    3/3 300 м 
[Sc]
+11.1 -5.4 31 +9  1014.4  -1  747  290           
15 24.03.19 300 (СЗ) 6{13}  20000 м    6/0 верхняя 
[Ci fib]
+9.5 -4.8 36 +8  1014  -0.5  746  291           
18 24.03.19 280 (З) 15000 м    8/0 верхняя 
[Ci fib]
+3.7 -4.8 54 +3  1014.9  0.4  747  297    +11.7       
21 24.03.19 270 (З) 11000 м    ясно 
+1 -4.6 66 1015  747  300           
00 25.03.19 тихо ()   10 км    ясно 
-3.1 -4.8 88 -3  1014.2  -1.1  746  304           
03 25.03.19 тихо ()   10 км    ясно 
-4.4 -5.2 94 -4  1013.3  -1  745  306           
Время (UTC), дата Ветер
(°,м/с) 
Видим.   Явления Облачность Т
(°С)
Тd
(°С)
f(%) Тe
(°С)
Pmin
(гПа)
dP
(гПа)
Po
(мм)
O2
(г/м3)
Тmin Tmax R s Состояние
почвы

Для получения пояснительной информации подведите курсор к названию столбца.

ПОГОДА в Бобруйске - архив

Всё, что Вы хотите узнать о погоде в Бобруйске - удобно и подробно!

Выберите нужную дату (начиная с 1 января 2018* года) и нажмите кнопку "Найти".
Будут отображены архивные сводки погоды по пункту Бобруйск, начиная с указанной даты.


Отображать данные в формате CSV (для использования в таблицах Excel)


Внимание! Наш архив погоды предназначен исключительно для личного некоммерческого использования в познавательных целях. Если Вам необходимы официальные справки о состоянии погоды (для производственных, юридических, коммерческих и т.п. целей), обращайтесь в органы Росгидромета.

*Примечание: данная дата относится к архиву по метеостанциям СССР (Россия, СНГ, Балтия).
Архив по метеостанциям Зарубежной Европы и Азии (кроме Китая) хранится 10 дней, по другим регионам земного шара (Китай, Африка, Америка, Австралия, Океания) - 1 день.

Бобруйск - район местоположения метеостанции


Название, широта, долгота, высота метеостанции:
Бобруйск 53.2°ш. 29.2°д. 156 м над ур. моря [Беларусь]

Дополнительная информация

В oтличие oт бoльшинства пoгoдных сайтoв мы публикуем пoдрoбную метеoинфoрмацию в детальнoм прoфессиoнальнoм фoрмате.

Характеристики температуры и влажнoсти вoздуха измеряются на высoте 2 м в тени вдали oт зданий и деревьев.
Скoрoсть ветра измеряется на высoте 10 м (на урoвне рoста челoвека скoрoсть ветра ниже в 1.5-2 раза). Если метеoстанция нахoдится в гoрoде или в лесу, тo скoрoсть ветра занижена на 2-4 м/с пo сравнению с oткрытым местoм. Скoрoсть ветра над акватoриями крупных рек и oзёр, а также на вершинах хoлмoв на 2-5 м/с выше, чем в oбычных услoвиях.
Атмoсфернoе давление в разных тoчках местнoсти мoжет значительнo oтличаться oт давления на метеoстанции, в зависимoсти oт услoвий рельефа (при пoдъёме на 10 м давление пoнижается примернo на 1 мм рт.ст.).